CW3071 Weather Reports


time (UTC)temp
F
wind
direction
speed
knots
gust
knots
rain 1hr
in
rain 24hr
in
rain mn
in
humidity
%
barometer
mb
20260506123049 27 0 0.0 0.0 0.00 0.00 0.00 95 1019.0
20260506121554 27 0 0.0 0.9 0.00 0.00 0.00 96 1019.0
20260506120050 27 0 0.0 1.7 0.00 0.00 0.00 95 1018.9
20260506114551 27 0 0.0 1.7 0.00 0.00 0.00 95 1018.8
20260506113054 28 0 0.0 0.0 0.00 0.00 0.00 95 1018.7
20260506111546 28 0 0.0 0.0 0.00 0.00 0.00 95 1018.7
20260506110053 28 0 0.0 0.0 0.00 0.00 0.00 95 1018.6
20260506104559 28 0 0.0 1.7 0.00 0.00 0.00 95 1018.6
20260506103049 28 0 0.0 1.7 0.00 0.00 0.00 95 1018.7
20260506101552 28 350 0.0 2.6 0.00 0.00 0.00 95 1018.7
20260506100104 28 0 0.0 1.7 0.00 0.00 0.00 95 1018.5
20260506094601 28 0 0.0 2.6 0.00 0.00 0.00 94 1018.5
20260506093051 28 0 0.0 2.6 0.00 0.00 0.00 94 1018.4
20260506091548 29 350 0.9 2.6 0.00 0.00 0.00 94 1018.4
20260506090049 29 0 0.0 0.0 0.00 0.00 0.00 94 1018.4
20260506084559 29 0 0.0 0.0 0.00 0.00 0.00 94 1018.4
20260506083100 29 0 0.0 0.0 0.00 0.00 0.00 93 1018.4
20260506081607 29 0 0.0 3.5 0.00 0.00 0.00 94 1018.4
20260506073052 29 350 1.7 3.5 0.00 0.00 0.00 94 1018.5
20260506071555 29 350 1.7 2.6 0.00 0.00 0.00 94 1018.7
20260506061553 29 350 0.9 2.6 0.00 0.00 0.00 93 1018.5
20260506044553 31 0 0.0 0.0 0.00 0.00 0.00 94 1018.1
20260506043056 31 0 0.0 1.7 0.00 0.00 0.00 94 1018.3
20260506041553 31 350 0.0 1.7 0.00 0.00 0.00 93 1018.4
20260506040055 31 0 0.0 1.7 0.00 0.00 0.00 93 1018.2
20260506034610 31 0 0.0 0.0 0.00 0.00 0.00 94 1018.2
20260506033052 32 0 0.0 0.9 0.00 0.00 0.00 93 1018.1
20260506031552 32 0 0.0 1.7 0.00 0.00 0.00 93 1017.9
20260506030050 32 0 0.0 0.9 0.00 0.00 0.00 93 1017.6
20260506024556 31 0 0.0 0.9 0.00 0.00 0.00 93 1017.3
20260506023101 31 0 0.0 0.9 0.00 0.00 0.00 93 1017.3
20260506021553 31 0 0.0 1.7 0.00 0.00 0.00 92 1017.2
20260506020057 31 0 0.0 2.6 0.00 0.00 0.00 91 1017.1
20260506014550 32 350 2.6 7.8 0.00 0.00 0.00 90 1017.2
20260506013106 33 350 5.2 10.4 0.00 0.00 0.00 86 1017.0
20260506011558 36 350 4.3 7.8 0.00 0.00 0.00 75 1016.8
20260506010108 36 350 4.3 7.8 0.00 0.00 0.00 70 1016.6
20260506004552 36 350 3.5 7.0 0.00 0.00 0.00 69 1016.6
20260506003056 36 350 2.6 8.7 0.00 0.00 0.00 71 1016.4
20260506001555 37 350 7.0 13.9 0.00 0.00 0.00 67 1016.1
20260506000054 38 350 6.1 12.2 0.00 0.00 0.00 61 1016.0
20260505234552 39 350 3.5 8.7 0.00 0.00 0.00 56 1015.5
20260505233104 39 350 2.6 7.8 0.00 0.00 0.00 57 1015.4
20260505231553 38 350 2.6 9.6 0.00 0.00 0.00 64 1015.0
20260505230100 39 350 6.1 11.3 0.00 0.00 0.00 64 1015.1
20260505224552 41 350 4.3 9.6 0.00 0.00 0.00 54 1014.6
20260505223052 40 350 6.1 10.4 0.00 0.00 0.00 59 1014.6
20260505221555 40 350 5.2 12.2 0.00 0.00 0.00 59 1014.9
20260505220055 40 350 5.2 13.9 0.00 0.00 0.00 60 1014.7
20260505214601 40 350 6.1 14.8 0.00 0.00 0.00 53 1014.5
20260505213052 41 350 2.6 8.7 0.00 0.00 0.00 54 1014.6
20260505211549 40 350 6.1 12.2 0.00 0.00 0.00 56 1014.8
20260505210051 40 350 7.8 14.8 0.00 0.00 0.00 52 1014.9
20260505204548 41 44 4.3 12.2 0.00 0.00 0.00 53 1014.8
20260505203047 40 350 7.0 13.9 0.00 0.00 0.00 57 1015.1
20260505201557 40 350 6.1 9.6 0.00 0.00 0.00 54 1015.1
20260505200056 40 350 4.3 10.4 0.00 0.00 0.00 57 1015.2
20260505194553 40 350 3.5 7.8 0.00 0.00 0.00 52 1014.8
20260505193053 40 350 5.2 10.4 0.00 0.00 0.00 51 1015.0
20260505191605 40 350 7.8 12.2 0.00 0.00 0.00 51 1014.9
20260505184551 42 312 6.1 12.2 0.00 0.00 0.00 47 1014.6
20260505183112 41 350 8.7 13.9 0.00 0.00 0.00 46 1014.9
20260505181553 41 336 6.1 12.2 0.00 0.00 0.00 46 1015.1
20260505180057 41 350 4.3 12.2 0.00 0.00 0.00 47 1015.3
20260505174551 40 350 3.5 7.8 0.00 0.00 0.00 49 1015.2
20260505173054 40 350 6.1 10.4 0.00 0.00 0.00 50 1015.1
20260505171558 40 350 5.2 11.3 0.00 0.00 0.00 50 1015.5
20260505170051 39 350 5.2 11.3 0.00 0.00 0.00 52 1015.7
20260505164550 39 350 3.5 11.3 0.00 0.00 0.00 55 1015.6
20260505163050 39 350 6.1 11.3 0.00 0.00 0.00 56 1015.6
20260505161605 38 350 4.3 8.7 0.00 0.00 0.00 58 1015.7
20260505153051 37 350 4.3 9.6 0.00 0.00 0.00 63 1015.9
20260505151606 37 350 3.5 7.8 0.00 0.00 0.00 66 1015.6
20260505124555 38 350 2.6 4.3 0.00 0.00 0.00 79 1014.6